Вернуться в каталог

STARLINK-30412

АктивенСвязьVLEO
NORAD 57854·PAYLOAD·🇺🇸 United States

Запущен Sep 12, 2023 с Vandenberg Space Force Base

Loading…

Ближайшие Пролёты (ближайшие 24 часа)

TLE

СвежийSource: CelesTrak SupGP

Эпоха: Sep 15, 2026, 02:31 UTC

1 57854C 23141Q   26258.10534722  .00046683  00000+0  13793-2 0  2586
2 57854  53.1562 122.6718 0001251  82.9966 199.2391 15.34366051    18

Отслеживайте STARLINK-30412 в реальном времени с AllMySat

Download on the App Store